Regional Weather Roundup
Issued by NWS Upton, NY

Current Version | Previous Version | Text Only | Print | Product List | Glossary Off
Versions: 1 2 3 4 5 6 7 8 9 10 11 12 13 14 15 16 17 18 19 20 21 22 23 24 25 26 27 28 29 30 31 32 33 34 35 36 37 38 39 40 41 42 43 44 45 46 47 48 49 50
772 ASUS41 KOKX 250808 RWROKX REGIONAL WEATHER ROUNDUP NATIONAL WEATHER SERVICE NEW YORK NY 400 AM EDT SAT MAR 25 2017 NOTE: "FAIR" INDICATES FEW OR NO CLOUDS BELOW 12,000 FEET WITH NO SIGNIFICANT WEATHER AND/OR OBSTRUCTIONS TO VISIBILITY. NYZ071-072-176-178-NJZ106-104-250900- NEW YORK CITY METRO AREA CITY SKY/WX TMP DP RH WIND PRES REMARKS Central Park CLOUDY 52 35 52 W12G17 30.09F Wall St Helipt CLOUDY 51 36 56 SW7 30.08F LaGuardia APRT CLOUDY 54 35 48 SW5 30.07S Kennedy INTL CLOUDY 43 39 86 S5 30.09S Breezy Point N/A 46 N/A N/A W6 N/A Newark/Liberty CLOUDY 50 35 56 SW10 30.07F Teterboro CLOUDY 47 35 63 VRB5 30.06F $$ NYZ177-179-078>081-250900- LONG ISLAND NEW YORK CITY SKY/WX TMP DP RH WIND PRES REMARKS Jones Beach N/A 43 N/A N/A SW5 N/A Matinecock PT N/A 50 N/A N/A SW12 N/A Farmingdale CLOUDY 44 39 82 SW6 30.08S MacArthur/ISP CLOUDY 44 40 85 SW7 30.07F Shirley MOCLDY 44 40 85 SW8 30.09S Westhampton CLOUDY 44 39 82 SW12 30.09F East Hampton N/A 44 39 83 W7 30.07S Montauk N/A 46 40 79 SW10 30.08S $$ NYZ052-065-067-250900- HUDSON VALLEY CITY SKY/WX TMP DP RH WIND PRES REMARKS White Plains CLOUDY 49 33 54 SW5 30.04F Newburgh PTCLDY 41 36 81 W6 30.06F Montgomery CLOUDY 34 32 92 CALM 30.05S Poughkeepsie MOCLDY 37 31 78 CALM 30.06S Albany LGT RAIN 38 34 85 NW6 30.09R WCI 33 $$ NJZ001-105-106-008-010-013-015-019>022-104-250900- NEW JERSEY CITY SKY/WX TMP DP RH WIND PRES REMARKS Newark/Liberty CLOUDY 50 35 56 SW10 30.07F Teterboro CLOUDY 47 35 63 VRB5 30.06F Caldwell CLOUDY 49 34 56 SW3 30.07F Somerville CLOUDY 40 34 79 S3 30.06F Linden N/A 51 34 52 CALM 30.07F Sussex CLOUDY 37 34 89 CALM 30.05F Andover N/A 43 34 70 S3 30.07S Trenton CLOUDY 48 36 63 SW5 30.09F Millville PTCLDY 55 47 74 SW3 30.13F Atlantic City PTCLDY 56 45 66 SW8 30.13F Wrightstown MOCLDY 49 42 75 SW5 30.08F Toms River PTCLDY 54 45 71 SW9 30.11F Belmar CLOUDY 53 43 68 SW12 30.09F $$ PAZ047>061-062-071-250900- EASTERN PENNSYLVANIA CITY SKY/WX TMP DP RH WIND PRES REMARKS Philadelphia MOCLDY 47 38 71 SW6 30.12F Allentown CLOUDY 39 33 79 N3 30.08F Scranton PTCLDY 48 39 71 S6 30.06S $$ CTZ002-004>006-009-010-012-RIZ004-006-007-MAZ004-011-015-250900- SOUTHERN NEW ENGLAND IN CT CITY SKY/WX TMP DP RH WIND PRES REMARKS Bradley INTL CLOUDY 38 32 79 NE3 30.07F Hartford CLOUDY 40 34 79 CALM 30.07F Danbury MOCLDY 36 32 85 CALM 30.06F Wtrbury/Oxford PTCLDY 43 30 61 W3 30.05F Bridgeport CLOUDY 44 36 73 SW3 30.06F Meriden PTCLDY 38 33 82 CALM 30.06S New Haven PTCLDY 41 36 82 CALM 30.07F Chester NOT AVBL Groton MOCLDY 38 35 89 CALM 30.07S Wilimantic CLOUDY 35 31 85 N5 30.08R WCI 31 IN RI CITY SKY/WX TMP DP RH WIND PRES REMARKS Providence MOCLDY 43 34 70 SW6 30.05F Block Island CLOUDY 42 40 92 SW15 30.08S Westerly CLOUDY 42 38 85 SW3 30.07F IN MA CITY SKY/WX TMP DP RH WIND PRES REMARKS Boston CLOUDY 46 34 62 NW7 30.07R Worcester PTCLDY 42 32 67 SW7 30.04R Westfield MOCLDY 34 31 88 CALM 30.06S Provincetown PTCLDY 40 37 89 SW9 30.06S WCI 34 Nantucket PTCLDY 43 39 86 W14 30.07R $$ ANZ330-335-338-340-345-350-353-355-250900- COASTAL MARINE OBSERVATIONS STATION/POSITION TIME SKY/WX TEMP WIND PRES VSBY WAVE AIR SEA DIR/SP/G HT/PER (UTC) (F) (DEG/KT/KT) (MB) (MI) (FT/S) NY HARB ENTRANCE 0650 44 42 200/ 10/ 10 1019.2 4/ 6 20 S FIRE ISLAND 0650 44 40 210/ 12/ 14 1019.2 5/ 6 GREAT SOUTH BAY NOT AVBL 23 SSW MONTAUK P 0650 46 43 1018.9 7/ 7 15 E BARNEGAT LI 0730 42 N/A 5/ 7 HUDSON CANYON 0650 50 45 210/ 21/ 23 1020.3 8/ 8 KINGS POINT 0736 49 39 1018.2 EXECUTION ROCKS NOT AVBL CENTRAL LI SOUND 0730 41 210/ 4/ 6 N/A 1 EASTERN LI SOUND NOT AVBL ROBBINS REEF 0736 51 260/ 9/ 11 1018.6 $$ >>>>>>>>>>>>>>>>>>>>>>>>>>>> KEY <<<<<<<<<<<<<<<<<<<<<<<<<<< > < > SKY/WX - Sky Condition/Present Weather < > TMP - Temperature in Fahrenheit < > DP - Dew Point in Fahrenheit < > RH - Relative Humidity in Percent < > WIND - Direction (from) and Speed in MPH < > PRES - Mean Sea Level Pressure (inches of Hg) < > WCI - Wind Chill Index < > VSB - VISIBILITY IN MILES < > HX - HEAT INDEX < > TC - TEMPERATURE IN CELSIUS < > VRB - VARIABLE WIND DIRECTION < > < >>>>>>>>>>>>>>>>>>>>>>>>>>>> KEY <<<<<<<<<<<<<<<<<<<<<<<<<<<

USA.gov is the U.S. government's official web portal to all federal, state and local government web resources and services.